Campo, CA

1:12 PM PST on November 16, 2019 (GMT -0800)
Campo

Weather History for KCZZ - October, 2019

Change the Weather History Date:

Sunday, October 13, 2019

  Actual Average Record
Temperature  
Mean Temperature 59 °F 61 °F  
Max Temperature 80 °F 80 °F 98 °F (1950)
Min Temperature 37 °F 43 °F 29 °F (2000)
Degree Days  
Heating Degree Days 6 5  
Month to date heating degree days 58 47  
Since 1 July heating degree days 114 97  
Cooling Degree Days 0 1  
Month to date cooling degree days 4 20  
Year to date cooling degree days 807 831  
Growing Degree Days 10 (Base 50)    
Moisture  
Dew Point 32 °F    
Average Humidity 47    
Maximum Humidity 86    
Minimum Humidity 8    
Precipitation  
Precipitation 0.00 in 0.02 in 0.49 in (1987)
Month to date precipitation 0.00 0.27  
Year to date precipitation 13.53 11.78  
Sea Level Pressure  
Sea Level Pressure 29.80 in    
Wind  
Wind Speed 7 mph (SSE)    
Max Wind Speed 17 mph    
Max Gust Speed 21 mph    
T = Trace of Precipitation, MM = Missing Value Source: NWS Daily Summary

Daily Weather History Graph

Daily Weather History Graph

Search for Another Location

Airport or City:

Astronomy

Oct. 13, 2019 Rise Set
Actual Time 6:48 AM PDT 6:15 PM PDT
Civil Twilight 6:23 AM PDT 6:40 PM PDT
Nautical Twilight 5:54 AM PDT 7:08 PM PDT
Astronomical Twilight 5:26 AM PDT 7:37 PM PDT
Moon 6:37 PM PDT (10/13) 6:31 AM PDT (10/13)
Length of Visible Light 12h 16m
Length of Day
11h 27m
Full, 100% of the Moon is Illuminated
Oct 13
Full
Oct 13
Full
Oct 21
Last Quarter
Oct 27
New
Nov 4
First Quarter

Hourly Weather History & Observations

Time (PDT) Temp. Windchill Dew Point Humidity Pressure Visibility Wind Dir Wind Speed Gust Speed Precip Events Conditions
12:52 AM 45.0 °F 43.5 °F 25.0 °F 46% 29.82 in - North 3.5 mph - N/A   Unknown
1:52 AM 43.0 °F 41.3 °F 23.0 °F 45% 29.81 in - NE 3.5 mph - N/A   Unknown
2:52 AM 42.1 °F 38.4 °F 23.0 °F 47% 29.81 in - ENE 5.8 mph - N/A   Unknown
3:52 AM 41.0 °F 38.0 °F 21.9 °F 47% 29.80 in - NNE 4.6 mph - N/A   Unknown
4:52 AM 42.1 °F 40.2 °F 21.0 °F 43% 29.80 in - NNE 3.5 mph - N/A   Unknown
6:52 AM 48.0 °F - 19.0 °F 32% 29.81 in - Variable 3.5 mph - N/A   Unknown
7:52 AM 55.9 °F - 19.0 °F 24% 29.81 in - Calm Calm - N/A   Unknown
8:52 AM 72.0 °F - 16.0 °F 12% 29.80 in - ENE 10.4 mph - N/A   Unknown
9:52 AM 77.0 °F - 17.1 °F 10% 29.80 in - South 6.9 mph - N/A   Unknown
10:52 AM 79.0 °F - 14.0 °F 9% 29.80 in - SSW 9.2 mph - N/A   Unknown
11:52 AM 79.0 °F - 24.1 °F 13% 29.79 in - SW 12.7 mph - N/A   Unknown
12:52 PM 78.1 °F - 30.9 °F 18% 29.78 in - SW 13.8 mph 18.4 mph N/A   Unknown
1:52 PM 77.0 °F - 34.0 °F 21% 29.77 in - SW 15.0 mph - N/A   Unknown
2:52 PM 77.0 °F - 39.9 °F 26% 29.77 in - SW 10.4 mph 18.4 mph N/A   Unknown
4:52 PM 73.0 °F - 46.9 °F 39% 29.77 in - SW 11.5 mph - N/A   Unknown
5:52 PM 66.9 °F - 51.1 °F 57% 29.79 in - SW 13.8 mph - N/A   Unknown
6:52 PM 60.1 °F - 52.0 °F 75% 29.81 in - SSW 5.8 mph - N/A   Unknown
7:52 PM 57.9 °F - 51.1 °F 78% 29.82 in - SSW 5.8 mph - N/A   Unknown
8:52 PM 51.1 °F - 46.0 °F 83% 29.81 in - NNE 5.8 mph - N/A   Unknown
9:52 PM 48.0 °F - 44.1 °F 86% 29.81 in - North 3.5 mph - N/A   Unknown
10:52 PM 46.9 °F - 43.0 °F 86% 29.82 in - ENE 4.6 mph - N/A   Unknown
11:52 PM 46.0 °F 43.9 °F 41.0 °F 83% 29.82 in - NNE 4.6 mph - N/A   Unknown